Location: ??
(35.5052°N, 139.7262°E)
Time: 00:40:42
(UTC+00:00)

NOSS 3-4 (A) - Visible Passes

Search period start: 24 October 2021 00:00
Search period end: 03 November 2021 00:00
Orbit: 869 x 1343 km, 63.4° (Epoch: 05 October)

Date Brightness Start Highest point End Pass type
(mag) Time Alt. Az. Time Alt. Az. Time Alt. Az.
24 Oct 6.0 19:53:24 10° N 19:57:59 18° NE 20:02:51 10° E visible
25 Oct 6.2 19:09:57 10° NNE 19:12:28 12° NNE 19:15:04 10° NE visible
26 Oct 5.4 20:13:37 10° NNW 20:19:58 33° NE 20:26:55 10° ESE visible
27 Oct 5.9 19:29:23 10° N 19:34:46 23° NE 19:40:34 10° E visible
28 Oct 6.1 18:45:28 10° N 18:49:23 15° NE 18:53:29 10° ENE visible
29 Oct 6.3 18:03:18 10° NNE 18:03:47 10° NNE 18:04:16 10° NE visible
29 Oct 5.0 19:49:51 10° NNW 19:56:36 43° NE 20:04:01 10° ESE visible
30 Oct 5.6 19:05:28 10° N 19:11:30 29° NE 19:18:01 10° ESE visible
31 Oct 6.0 18:21:20 10° N 18:26:13 19° NE 18:31:25 10° E visible
31 Oct 4.1 20:10:47 10° NNW 20:18:04 83° ENE 20:26:08 10° SSE visible
01 Nov 6.2 17:37:41 10° N 17:40:44 13° NE 17:43:55 10° ENE visible
01 Nov 4.6 19:26:08 10° NNW 19:33:10 55° NE 19:40:57 10° SE visible
02 Nov 5.3 09:18:57 10° SSE 09:19:21 11° SE 09:19:21 11° SE visible
02 Nov 5.2 18:42:02 12° NNW 18:48:09 36° NE 18:55:16 10° ESE visible
02 Nov 4.3 20:32:15 10° NW 20:39:16 49° WSW 20:46:56 10° S visible
